Location: Johnson City
(36.3130°N, 82.3540°W)
Time: 19:17:35
(UTC-05:00)

ISS - Visible Passes

Search period start: 18 December 2018 00:00
Search period end: 28 December 2018 00:00
Orbit: 401 x 408 km, 51.6° (Epoch: 19 December)

Date Brightness Start Highest point End Pass type
(mag) Time Alt. Az. Time Alt. Az. Time Alt. Az.
21 Dec -0.2 06:30:12 10° SE 06:31:14 11° SE 06:32:16 10° ESE visible
23 Dec -1.7 06:20:07 10° SSW 06:23:01 29° SE 06:25:55 10° ENE visible
24 Dec -0.7 05:29:04 10° SSE 05:30:57 14° SE 05:32:51 10° E visible
24 Dec -3.5 07:03:59 10° WSW 07:07:08 45° NW 07:10:19 10° NE visible
25 Dec -3.9 06:13:02 24° SW 06:14:53 86° SE 06:18:10 10° NE visible
26 Dec -1.5 05:24:09 24° E 05:24:09 24° E 05:25:47 10° ENE visible
26 Dec -2.4 06:56:52 11° W 06:59:16 21° NNW 07:01:52 10° NNE visible
27 Dec -2.8 06:07:33 32° N 06:07:33 32° N 06:09:56 10° NNE visible
